Regional Weather Roundup
Issued by NWS Charleston, SC

Current Version | Previous Version | Text Only | Print | Product List | Glossary Off
Versions: 1 2 3 4 5 6 7 8 9 10 11 12 13 14 15 16 17 18 19 20 21 22 23 24 25 26 27 28 29 30 31 32 33 34 35 36 37 38 39 40 41 42 43 44 45 46 47 48 49 50

770
ASUS42 KCHS 270328
RWRCHS

REGIONAL WEATHER ROUNDUP
NATIONAL WEATHER SERVICE CHARLESTON SC
1100 PM EDT MON SEP 26 2016

NOTE: "FAIR" INDICATES FEW OR NO CLOUDS BELOW 12,000 FEET WITH NO
SIGNIFICANT WEATHER AND/OR OBSTRUCTIONS TO VISIBILITY.

NOT ALL STATIONS ARE QUALITY CONTROLLED. USE DATA WITH CAUTION...
ESPECIALLY DEWPOINT OBSERVATIONS.

SCZ027-030-031-034>040-042>050-270400-
...SOUTHEAST SOUTH CAROLINA...

CITY           SKY/WX    TMP DP  RH WIND       PRES   REMARKS
N CHARLESTON   CLOUDY    75  73  93 CALM      30.00F
WATERFRONT PRK   N/A     79  74  85 E7        29.99S
MOUNT PLEASANT FAIR      73  73 100 CALM      30.00F FOG
JOHNS ISLAND   MOCLDY    75  73  94 CALM      30.00F
PINOPOLIS        N/A     77  75  94 CALM      29.96S
MONCKS CORNER  MOCLDY    73  72  94 CALM      30.01F
SUMMERVILLE    MOCLDY    73  73 100 CALM      30.03S
BEAUFORT MCAS  CLOUDY    73  71  93 N5        30.00F
BEAUFORT ARPT  FAIR      72  72 100 N3        30.00F
HILTON HEAD IS CLOUDY    77  73  88 NE5       30.00F
WALTERBORO     CLOUDY    73 N/A N/A CALM      30.02F
ALLENDALE      FAIR      73  72  94 CALM      30.02R

...SOUTHERN MIDLANDS AND PEE DEE...

CITY           SKY/WX    TMP DP  RH WIND       PRES   REMARKS
GEORGETOWN     FAIR      75  70  83 CALM      30.01F
KINGSTREE      FAIR      70  70 100 CALM      30.03F FOG
ORANGEBURG     CLEAR     72  71  97 CALM      30.03F
BARNWELL       NOT AVBL
AIKEN          FAIR      68  64  88 CALM      30.07S
MANNING        FAIR      70  70 100 N3        30.03F FOG
COLUMBIA       PTCLDY    74  70  87 SE5       30.02F
SUMTER         CLEAR     72  68  88 E2        30.02F
FLORENCE       CLOUDY    74  70  87 CALM      30.05F
MYRTLE BEACH   CLOUDY    79  66  65 E8        30.03F
N MYRTLE BEACH CLOUDY    79  71  76 SE8       30.02F

$$

GAZ063-065-086>088-099>101-113>116-118-119-134>141-150-270400-
...SOUTHEAST GEORGIA...

CITY           SKY/WX    TMP DP  RH WIND       PRES   REMARKS
SAVANNAH ARPT  CLOUDY    74  70  87 NE5       30.00F
HUNTER AAF     MOCLDY    76  76  99 E3        29.98F
FORT STEWART   CLOUDY    71  69  92 CALM      29.98F
STATESBORO     CLOUDY    74  73  95 E3        30.02F
SYLVANIA       NOT AVBL
CLAXTON        FAIR      73  73 100 CALM      30.01S

...CSRA...CENTRAL AND FAR SOUTHEAST GEORGIA...

CITY           SKY/WX    TMP DP  RH WIND       PRES   REMARKS
THOMSON        PTCLDY    73  70  90 CALM      30.07S
AUGUSTA-BUSH   CLEAR     68  68 100 CALM      30.02S
AUGUSTA-DANIEL CLEAR     75  67  76 SE5       30.03F
SWAINSBORO     FAIR      73  70  88 E5        30.02F
VIDALIA        CLOUDY    73  73 100 CALM      30.02S
EASTMAN        FAIR      76  65  68 E3        30.04S
HAZLEHURST     FAIR      75  72  88 CALM      30.01S
ALMA           PTCLDY    73  69  87 CALM      30.01S
WAYCROSS       CLEAR     73  73  99 CALM      30.00F
JESUP          FAIR      73  73 100 CALM      30.00S
BAXLEY         FAIR      73  73 100 CALM      30.01S
BRUNSWICK      MOCLDY    75  73  94 CALM      29.99S
SAINT SIMONS   PTCLDY    78  71  79 E8        29.98F

$$

SCZ027-028-034-036>038-045-046-048>050-GAZ119-141-270400-
...LAKE AND SUPPLEMENTAL COASTAL OBSERVATIONS...

STATION/POSITION TIME  TEMP    WIND        PRES    WAVE   SWELL
                       AIR SEA DIR/SP/G            HT/PER HT/PER/DIR
                 (UTC) (F)     (DEG/KT/KT) (MB)    (FT/S) (FT/S/D)
WINYAH BAY       0230   80     100/  8     1016.0S
LAKE MURRAY      0250   77     160/  6/  8 1016.3F
ACE BASIN NERRS  0245   72        CALM     1016.0S
FORT PULASKI     0300   76 81  110/  3/  5 1016.2
SAPELO ISLAND    0300   77        CALM     1015.0

$$

ANZ835-935-AMZ111-154-330-350-352-354-370-450-454-472-270400-
...C-MAN AND BUOY OBSERVATIONS...

STATION/POSITION TIME  TEMP    WIND        PRES    WAVE   SWELL
                       AIR SEA DIR/SP/G            HT/PER HT/PER/DIR
                 (UTC) (F)     (DEG/KT/KT) (MB)    (FT/S) (FT/S/D)
BUOY 41004       0250   80 82  100/ 12/ 14 1015.3F   3/ 8   2/100/ 8
BUOY 41008       0250   78 82  110/ 17/ 21 1014.8F   4/ 5   2/ 90/ 9
FOLLY BEACH CMAN 0300   79     110/  9/ 11 1016.0F
CAPERS NEARSHORE 0208   79 81  120/ 10/ 14 1015.9F
FRIPP NEARSHORE  0308   79 81  110/ 10/ 14 1015.7F


STATION/POSITION TIME  TEMP    WIND        PRES    WAVE   SWELL
                       AIR SEA DIR/SP/G            HT/PER HT/PER/DIR
                 (UTC) (F)     (DEG/KT/KT) (MB)    (FT/S) (FT/S/D)
5E ST. MARYS GA  0201      82                N/A     4/ 5
FRYING PAN BUOY  0300   81 82  110/ 14/ 17 1016.4
BUOY 41025       0250   79 84  150/ 16/ 19 1017.6F   4/ 8   2/ 50/ 8
CAPE LOOKOUT NC  0300   79     160/  7/  8 1017.2F
BUOY 41002       0250   80 83  120/ 14/ 16 1016.7S   5/ 5   3/ 40/ 8
BUOY 41010       NOT AVBL
ST AUGUSTINE FL  0300   77 84  240/  6/  7 1015.5F


$$




USA.gov is the U.S. government's official web portal to all federal, state and local government web resources and services.